Location: Wien
(48.2082°N, 16.3738°E)
Time: 10:16:02
(UTC+02:00)

UNISAT 6 - Pass Details

Date: 03 May 2024
Orbit: 593 x 668 km, 97.7° (Epoch: 20 May)

Event Time Altitude Azimuth Distance (km) Brightness Sun altitude
Rises 03:03:09 0° 108° (ESE) 2,869 ? -19.6°
Reaches altitude 10° 03:06:59 10° 72° (ENE) 1,954 ? -19.2°
Maximum altitude 03:08:05 11° 57° (ENE) 1,892 ? -19.1°
Drops below altitude 10° 03:09:12 10° 42° (NE) 1,950 ? -19.0°
Sets 03:13:00 0° 6° (N) 2,849 ? -18.7°
